Find Starlink 32512

NORAD ID: 62027 Int'l Des: 2024-213 Owner: SPXS Country: US Constellation: starlink operational
LEOCIRCULAR

Current View

Loading 3D Globe...

About Starlink 32512

Starlink 32512 (NORAD 62027) is a starlink constellation satellite (v2 mini) launched Nov 18, 2024 by SPXS of US. It operates in LEO, CIRCULAR orbit with a mass of 730.00 kg.

Upcoming Passes

Passes for default location (London). Set your location on the main map for personalized predictions.

Altitude History

Loading altitude history...

Two-Line Element Set

1 62027U 24213V 26235.67537250 .00032175 00000-0 98523-3 0 9990
2 62027 53.1590 111.6063 0001281 91.8772 268.2377 15.33555738 98733
Epoch: Aug 23, 2026 • Age: 18 hours

Current Status

Altitude 465.1 km
Apogee / Perigee N/A
Velocity 7.64 km/s
Sub-Earth Point 7.08°N, 157.75°E
Launch Date Nov 18, 2024
Age 1.7 years
Type internet

Technical Details

Classification Payload
Mass 730.00 kg
Dry Mass 700.00 kg
Total Mass 730.00 kg
Length 0.30 m
Diameter 4.10 m
Span 29.00 m
Shape Box + pan
Manufacturer SPXS
Bus Type Starlink V2M
Phase Status In Orbit
Owner/State SPXS/US

Most Searched